Weather History for KHIO - March, 2014

Change the Weather History Date:

Monday, March 31, 2014

  Actual Average Record
Temperature  
Mean Temperature 45 °F 48 °F  
Max Temperature 57 °F 58 °F 76 °F (1987)
Min Temperature 32 °F 38 °F 26 °F (1952)
Degree Days  
Heating Degree Days 20 17  
Month to date heating degree days 548 587  
Since 1 July heating degree days 4244 4114  
Cooling Degree Days 0 0  
Month to date cooling degree days 0 0  
Year to date cooling degree days 0 0  
Moisture  
Dew Point 36 °F    
Average Humidity 76    
Maximum Humidity 100    
Minimum Humidity 51    
Precipitation  
Precipitation 0.06 in 0.12 in 1.44 in (1931)
Month to date precipitation 6.07 3.73  
Year to date precipitation 13.54 14.20  
Snow  
Snow 0.00 in - - ()
Month to date snowfall 0.0  
Since 1 July snowfall 0.0  
Snow Depth 0.00 in    
Sea Level Pressure  
Sea Level Pressure 29.84 in    
Wind  
Wind Speed 4 mph (NNW)    
Max Wind Speed 13 mph    
Max Gust Speed 16 mph    
Visibility 6 miles    
Events Rain    
T = Trace of Precipitation, MM = Missing Value Source: NWS Daily Summary

Daily Weather History Graph

Daily Weather History Graph

Search for Another Location

Airport or City:

Trip Planner

Search our weather history database for the weather conditions in past years. The results will help you decide how hot, cold, wet, or windy it might be!

Date:

Astronomy

Mar. 31, 2014 Rise Set
Actual Time 6:53 AM PDT 7:38 PM PDT
Civil Twilight 6:23 AM PDT 8:08 PM PDT
Nautical Twilight 5:48 AM PDT 8:44 PM PDT
Astronomical Twilight 5:11 AM PDT 9:21 PM PDT
Moon 7:17 AM PDT (3/31) 9:08 PM PDT (3/31)
Length of Visible Light 13h 45m
Length of Day
12h 45m
New Moon, 1% of the Moon is Illuminated
Mar 31
New Moon
Apr 7
First Quarter
Apr 15
Full
Apr 22
Last Quarter
Apr 28
New

Hourly Weather History & Observations

Time (PDT) Temp. Windchill Dew Point Humidity Pressure Visibility Wind Dir Wind Speed Gust Speed Precip Events Conditions
12:53 AM 37.9 °F - 36.0 °F 93% 29.96 in 10.0 mi Calm Calm - N/A   Clear
1:47 AM 35.6 °F - 33.8 °F 93% 29.95 in 1.8 mi Calm Calm - N/A   Clear
1:53 AM 35.1 °F - 34.0 °F 96% 29.95 in 1.8 mi Calm Calm - N/A   Clear
1:55 AM 36.0 °F - 34.0 °F 93% 29.94 in 3.0 mi Calm Calm - N/A   Clear
2:04 AM 35.1 °F - 33.1 °F 92% 29.94 in 2.5 mi Calm Calm - N/A   Partly Cloudy
2:08 AM 34.0 °F 31.0 °F 33.1 °F 96% 29.94 in 1.0 mi NW 3.5 mph - N/A   Mist
2:16 AM 35.1 °F - 34.0 °F 96% 29.94 in 0.8 mi Calm Calm - N/A   Mist
2:22 AM 35.1 °F - 34.0 °F 96% 29.94 in 1.2 mi Calm Calm - N/A   Scattered Clouds
2:28 AM 35.1 °F - 34.0 °F 96% 29.94 in 3.0 mi Calm Calm - N/A   Partly Cloudy
2:43 AM 34.0 °F 31.0 °F 33.1 °F 96% 29.93 in 1.8 mi NW 3.5 mph - N/A   Partly Cloudy
2:53 AM 35.1 °F 32.2 °F 33.1 °F 92% 29.94 in 4.0 mi West 3.5 mph - N/A   Partly Cloudy
3:53 AM 33.1 °F 30.0 °F 32.0 °F 96% 29.91 in 10.0 mi North 3.5 mph - N/A   Clear
4:21 AM 34.0 °F - 33.1 °F 96% 29.90 in 8.0 mi Calm Calm - N/A   Partly Cloudy
4:38 AM 34.0 °F - 33.1 °F 96% 29.89 in 2.5 mi Calm Calm - N/A   Mostly Cloudy
4:45 AM 33.1 °F 30.0 °F 32.0 °F 96% 29.88 in 0.8 mi North 3.5 mph - N/A   Mist
4:53 AM 33.1 °F - 32.0 °F 96% 29.88 in 0.8 mi Calm Calm - N/A   Mist
5:00 AM 33.1 °F - 32.0 °F 96% 29.87 in 1.2 mi Calm Calm - N/A   Overcast
5:49 AM 33.8 °F - 32.0 °F 93% 29.86 in 1.0 mi Calm Calm - N/A   Mist
5:53 AM 34.0 °F - 33.1 °F 96% 29.86 in 2.0 mi Calm Calm - N/A   Mostly Cloudy
6:20 AM 33.1 °F - 32.0 °F 96% 29.85 in 6.0 mi Calm Calm - N/A   Scattered Clouds
6:53 AM 32.0 °F - 30.9 °F 96% 29.84 in 6.0 mi Calm Calm - N/A   Scattered Clouds
7:53 AM 34.0 °F 31.0 °F 33.1 °F 96% 29.83 in 10.0 mi WNW 3.5 mph - N/A   Clear
8:53 AM 37.9 °F 35.5 °F 37.0 °F 97% 29.82 in 10.0 mi NW 3.5 mph - N/A   Clear
9:53 AM 45.0 °F 41.8 °F 39.0 °F 80% 29.81 in 10.0 mi NE 5.8 mph - N/A   Clear
10:53 AM 46.9 °F - 39.9 °F 77% 29.80 in 10.0 mi Calm Calm - N/A   Clear
11:53 AM 51.1 °F - 41.0 °F 68% 29.78 in 10.0 mi NNW 3.5 mph - N/A   Clear
12:53 PM 54.0 °F - 37.9 °F 55% 29.76 in 10.0 mi East 6.9 mph - N/A   Clear
1:53 PM 55.0 °F - 37.0 °F 51% 29.74 in 10.0 mi ENE 3.5 mph - N/A   Clear
2:53 PM 55.9 °F - 39.0 °F 53% 29.73 in 10.0 mi WNW 5.8 mph - N/A   Mostly Cloudy
3:53 PM 57.0 °F - 41.0 °F 55% 29.71 in 10.0 mi WNW 5.8 mph - N/A   Overcast
4:53 PM 55.9 °F - 37.0 °F 49% 29.69 in 10.0 mi West 6.9 mph - N/A   Scattered Clouds
5:53 PM 55.9 °F - 37.0 °F 49% 29.69 in 10.0 mi WSW 9.2 mph - N/A   Overcast
6:53 PM 53.1 °F - 37.9 °F 57% 29.69 in 10.0 mi WSW 9.2 mph - N/A   Overcast
7:53 PM 48.9 °F - 42.1 °F 77% 29.70 in 10.0 mi NE 3.5 mph - 0.01 in Rain Light Rain
8:53 PM 48.9 °F - 42.1 °F 77% 29.71 in 10.0 mi Calm Calm - 0.00 in Rain Light Rain
9:53 PM 48.0 °F - 43.0 °F 83% 29.71 in 10.0 mi NE 11.5 mph - 0.04 in Rain Light Rain
10:53 PM 46.9 °F - 42.1 °F 83% 29.72 in 10.0 mi ENE 6.9 mph - 0.01 in Rain Light Rain
11:53 PM 45.0 °F - 42.1 °F 90% 29.73 in 10.0 mi Calm Calm - 0.00 in   Overcast